Location: Dubí
(50.1568°N, 14.1353°E)
Time: 22:46:23
(UTC+00:00)

Daily predictions for brighter satellites

Satellite Brightness Start Highest point End
(mag) Time Altitude Azimuth Time Altitude Azimuth Time Altitude Azimuth
Cosmos 1452 Rocket 4.0 19:47:43 10° NNW 19:52:53 59° WSW 19:58:02 10° S
SL-16 R/B 3.1 19:48:13 10° NNW 19:53:33 40° NE 19:58:51 10° ESE
Helios 1A 2.8 19:50:30 10° NNE 19:54:29 77° ESE 19:58:24 10° S
Cosmos 1727 Rocket 4.1 19:48:47 10° S 19:54:49 60° E 20:00:53 10° NNE
CZ-4 R/B 4.1 19:58:28 10° WSW 20:00:11 13° W 20:01:53 10° WNW
IRS-1C Rocket 4.2 19:55:16 10° SSE 20:00:29 68° ENE 20:05:42 10° N
Cosmos 2227 Rocket 2.7 19:55:23 10° S 20:00:35 39° ESE 20:05:49 10° NE
COSMOS 2455 3.0 19:54:42 10° NW 20:00:46 84° SW 20:06:47 10° SSE
Terra 2.1 19:56:11 10° S 20:00:52 69° WSW 20:05:35 10° NNW
Cosmos 2100 Rocket 4.2 19:55:36 10° N 20:01:44 62° ENE 20:07:48 10° SSE
SPOT 5 4.4 19:58:21 10° SSW 20:02:24 32° W 20:06:40 10° NNW
PSLV R/B 4.2 20:00:31 10° SE 20:03:35 38° ENE 20:06:41 10° N
USA 276 3.0 20:03:55 10° WSW 20:05:25 18° SSW 20:07:00 10° SSE
Cosmos 2263 Rocket 3.4 20:01:13 10° SSE 20:05:35 23° ESE 20:09:58 10° NE
RESURS DK-1 3.5 20:05:02 10° SSE 20:08:17 24° ESE 20:11:33 10° NE
Cosmos 1980 4.2 20:03:37 10° NW 20:09:10 58° WSW 20:14:41 10° S
Cosmos 1300 4.1 20:06:38 10° NNW 20:09:24 28° W 20:12:08 10° SSW
Okean O Rocket 3.0 20:09:33 10° SSW 20:13:29 34° W 20:17:27 10° NNW
Spot 2 Rocket 3.7 20:08:59 10° S 20:14:02 77° WSW 20:19:10 10° NNW
Helios 1B rocket 4.4 20:15:25 10° SW 20:18:16 21° W 20:21:10 10° NW
ERS-1 Rocket 4.2 20:19:44 10° SSW 20:24:24 39° W 20:29:07 10° NNW
Cosmos 1437 Rocket 3.2 20:21:22 10° SSE 20:24:37 35° E 20:27:55 10° NNE
Cosmos 921 Rocket 2.9 20:20:39 10° SSW 20:24:52 74° ESE 20:29:14 10° NNE
Cosmos 2219 4.2 20:21:14 10° SSE 20:26:05 29° ESE 20:30:57 10° NE
SL-14 R/B 3.4 20:28:58 10° SSW 20:32:52 78° W 20:36:49 10° N
Cosmos 2123 Rocket 4.1 20:27:38 10° S 20:33:48 61° E 20:39:58 10° NNE
SL-8 R/B 3.8 20:35:31 10° W 20:40:14 62° SSW 20:44:56 10° ESE
Cosmos 2237 Rocket 3.4 20:37:41 10° NW 20:42:48 36° WSW 20:47:54 10° S
Cosmos 1459 Rocket 4.2 20:36:31 10° NNW 20:42:50 79° W 20:49:12 10° S
USA 290 3.8 20:41:32 15° SE 20:42:51 19° ESE 20:45:12 10° NE
Cosmos 1809 Rocket 4.5 20:39:27 10° S 20:45:36 79° E 20:51:45 10° NNE
ARIANE 5 R/B 4.4 20:43:44 10° ESE 20:47:07 22° ENE 20:50:32 10° N
Cosmos 1802 Rocket 4.1 20:41:19 10° N 20:47:48 89° E 20:53:56 11° S
Meteor 1-15 Rocket 4.3 20:42:10 10° NNW 20:47:49 83° W 20:53:03 12° S
Meteor 2-14 Rocket 4.5 20:42:08 10° S 20:48:16 78° E 20:54:25 10° NNE
SL-4 R/B 3.4 20:47:40 14° SSE 20:49:20 17° SE 20:52:04 10° E
Cosmos 2061 Rocket 4.3 20:43:11 10° N 20:49:25 57° ENE 20:54:39 14° SSE
USA 305 2.3 20:48:32 10° SW 20:52:22 65° SSE 20:55:35 10° ENE
Cosmos 1953 2.7 20:49:58 10° N 20:53:35 44° ENE 20:56:11 17° SE
SL-08 R/B 4.5 20:50:21 10° N 20:56:28 78° E 21:01:43 14° SSE
Lacrosse 4 Rocket 2.2 20:56:58 10° NW 21:00:57 41° WSW 21:04:06 15° S
NOSS 3-4 (A) 4.0 20:58:11 10° WSW 21:03:33 57° NW 21:09:33 10° NE
NOSS 3-4 (C) 4.0 20:58:17 10° WSW 21:03:38 57° NW 21:09:39 10° NE
DNEPR-1 R/B 4.2 20:59:54 10° SSW 21:05:45 57° SE 21:10:37 10° NE
Cosmos 1818 3.8 21:01:03 10° SW 21:06:30 74° NW 21:11:59 10° NE
Cosmos 2016 Rocket 4.1 21:00:37 10° NNW 21:06:58 80° W 21:12:39 13° S
Cosmos 1455 4.4 21:09:44 10° WNW 21:10:24 11° W 21:11:05 10° WSW
Meteor 2-21 4.5 21:05:17 10° S 21:11:28 89° W 21:17:38 10° N
Cosmos 1892 4.2 21:10:55 14° ESE 21:11:41 15° E 21:13:28 10° NE
Ariane Rocket 4.0 21:10:06 10° SSW 21:14:51 39° W 21:19:38 10° NNW
Cosmos 1844 Rocket 4.3 21:13:12 14° SE 21:15:34 18° E 21:19:14 10° ENE
Cosmos 2297 Rocket 3.9 21:10:58 10° WSW 21:16:10 36° NW 21:21:24 10° NNE
USA 59 Rocket 2.0 21:14:16 10° NNW 21:16:40 18° NNE 21:19:26 10° ENE
CZ-4C R/B 3.8 21:14:13 10° NNE 21:17:09 30° E 21:18:25 23° SE
Cosmos 2228 Rocket 4.3 21:17:10 18° SE 21:19:32 27° E 21:23:17 10° NNE
GP-B 3.1 21:16:15 10° N 21:20:40 87° W 21:24:00 17° S
Cosmos 1269 Rocket 4.0 21:20:31 12° SSW 21:25:28 72° ESE 21:30:45 10° NNE
Cosmos 2084 Rocket 4.4 21:23:10 10° WNW 21:26:54 32° WSW 21:29:07 19° S
ATLAS CENTAUR R/B 3.3 21:26:35 10° WNW 21:29:02 16° WSW 21:31:05 11° SSW
Cosmos 1707 Rocket 4.3 21:28:01 21° SE 21:30:17 37° E 21:34:15 10° NNE
Cosmos 540 Rocket 4.3 21:26:03 10° NNW 21:30:54 41° ENE 21:34:50 15° ESE
IRIDIUM 103 4.4 21:33:33 20° SSE 21:37:07 66° E 21:42:18 10° N
SL-16 R/B 2.9 21:32:23 10° NW 21:37:42 43° WSW 21:41:38 17° S
ALOS 2 3.7 21:37:03 17° ESE 21:39:55 35° ENE 21:43:55 10° N
ATLAS 2AS CENTAUR R/B 4.4 21:37:43 13° SE 21:40:05 15° ESE 21:43:46 10° ENE
DELTA 2 DEB (DPAF) 3.9 21:37:38 10° N 21:41:32 73° WNW 21:44:30 17° SSW
Cosmos 2344 4.0 21:34:18 10° NW 21:42:15 85° NE 21:52:06 13° SE
Cosmos 1733 Rocket 3.1 21:38:07 10° N 21:42:31 70° ENE 21:45:01 25° SSE
Cosmos 2227 Rocket 3.4 21:39:14 10° WSW 21:44:36 43° NW 21:50:00 10° NNE
Cosmos 2233 Rocket 4.4 21:38:24 10° NNW 21:44:37 60° W 21:49:37 16° SSW
RESURS DK-1 3.6 21:41:46 10° SW 21:45:34 41° NW 21:49:25 10° NNE
Cosmos 1869 Rocket 4.3 21:41:23 10° NNW 21:45:35 45° W 21:48:34 17° SSW
Cosmos 2263 Rocket 2.5 21:43:18 10° SW 21:48:57 69° WNW 21:54:41 10° NNE
Okean 2 3.2 21:50:02 23° SSW 21:52:25 81° W 21:56:21 10° N
CZ-2C R/B 3.8 21:48:49 10° NNE 21:53:20 64° ESE 21:56:00 24° S
Okean 3 3.4 21:50:57 22° SSW 21:53:33 81° WNW 21:57:40 10° N
IRIDIUM 106 4.3 21:51:50 21° S 21:55:24 89° W 22:00:40 10° N
Aureole 3 Rocket 2.8 21:52:39 10° N 21:55:43 52° ENE 21:57:13 29° SE
ASTEX 1 3.4 21:54:16 10° N 21:59:16 84° E 22:02:22 23° S
Cosmos 1943 3.2 21:53:45 10° NNW 21:59:28 77° WSW 22:03:04 23° SSE
SeaSat 1 3.5 21:57:55 11° ESE 22:02:15 39° NE 22:06:48 10° NNW
Cosmos 1908 Rocket 4.5 21:58:29 10° N 22:02:34 38° ENE 22:05:01 21° SE
NOSS 2-1 (D) 4.5 22:04:04 10° NNW 22:07:11 35° NE 22:11:05 10° ESE
Cosmos 1763 Rocket 3.4 22:04:14 10° NNW 22:09:25 87° WSW 22:12:23 26° SSE
Cosmos 2219 3.8 22:04:15 10° SW 22:09:53 57° NW 22:15:35 10° NNE
MetOp-A 3.9 22:10:28 25° S 22:13:11 65° WSW 22:17:42 10° NNW
Cosmos 1862 Rocket 3.5 22:11:30 25° SSW 22:14:03 85° WNW 22:18:29 10° N
Cosmos 1603 3.7 22:11:22 10° NNW 22:17:01 83° ENE 22:20:41 23° SSE
USA 290 4.0 22:14:13 10° WSW 22:17:03 30° WNW 22:19:57 10° N
Cosmos 1271 Rocket 3.3 22:16:29 29° SE 22:17:35 37° E 22:20:57 10° NNE
Cosmos 2082 4.2 22:13:40 10° SW 22:19:19 62° WNW 22:25:02 10° NNE
Cosmos 2292 Rocket 3.6 22:18:12 25° SW 22:19:29 40° WNW 22:22:16 10° N
USA 305 3.4 22:17:38 10° W 22:21:04 42° NNW 22:23:42 10° ENE
Okean 1-7 2.8 22:19:41 30° S 22:21:40 80° E 22:25:49 10° NNE
ARIANE 5 R/B 3.0 22:20:49 26° SSW 22:23:07 53° W 22:27:30 10° NNW
SL-4 R/B 1.9 22:22:44 10° SW 22:26:48 60° SSE 22:30:44 10° ENE
Cosmos 1953 4.5 22:26:07 10° NW 22:28:30 16° W 22:30:44 11° SW
Cosmos 1140 Rocket 4.3 22:26:52 10° SW 22:31:50 49° WNW 22:36:49 10° NNE
Spot 4 4.1 22:30:33 27° S 22:33:06 62° WSW 22:37:54 10° NNW
NOSS 2-1 (C) 3.7 22:32:02 10° NW 22:35:22 55° NE 22:38:47 15° ESE
PSLV R/B 3.8 22:32:14 10° NNE 22:36:30 59° E 22:38:27 30° S
Cosmos 1703 4.3 22:34:57 19° SW 22:36:52 34° WNW 22:40:06 10° N
Cosmos 2227 4.1 22:33:33 20° SSW 22:37:30 86° ESE 22:43:09 10° NNE
NOSS 3-1 (C) 4.2 22:30:36 10° NW 22:37:38 59° SW 22:43:29 22° SSE
NOSS 2-1 (E) 3.8 22:35:35 10° NW 22:38:57 54° NE 22:42:35 14° ESE
SJ 16-02 2.6 22:38:57 22° SE 22:40:22 26° E 22:44:00 10° NE
Cosmos 1300 Rocket 4.1 22:37:00 10° N 22:41:18 49° ENE 22:43:39 24° SE
Cosmos 1892 3.6 22:43:00 21° WSW 22:44:14 29° WNW 22:46:57 10° N
PSLV R/B 4.4 22:40:53 10° NNE 22:44:39 43° E 22:46:02 31° SSE
USA 307 2.8 22:54:11 39° S 22:54:56 46° SE 22:58:46 10° ENE
Cosmos 407 Rocket 4.0 22:50:55 15° SW 22:54:59 54° WNW 23:00:01 10° NNE
Cosmos 2228 Rocket 4.3 22:54:32 17° SW 22:57:31 36° WNW 23:01:38 10° N
Cosmos 1844 Rocket 2.7 22:54:47 21° SSW 22:58:41 86° WNW 23:04:24 10° NNE
USA 234 3.9 22:54:45 10° ENE 23:00:44 37° SE 23:03:50 24° S
Cosmos 1703 Rocket 3.5 22:59:23 31° SSW 23:01:24 84° W 23:05:44 10° N
Cosmos 1782 Rocket 3.6 22:57:18 10° N 23:01:45 76° E 23:03:54 30° SSE
Cosmos 2251 Rocket 3.7 22:59:04 21° SW 23:02:43 71° WNW 23:08:06 10° NNE
OPS 6432 4.3 22:59:44 10° NW 23:02:59 58° SW 23:03:35 47° S
Cosmos 1844 3.6 22:59:50 22° SSW 23:03:29 89° WNW 23:09:05 10° NNE
USA 59 Rocket -0.3 23:02:23 10° NW 23:05:54 79° SW 23:08:26 25° SE
Cosmos 1954 Rocket 3.9 23:07:46 26° SSW 23:10:47 88° ESE 23:16:02 10° NNE
Cosmos 540 Rocket 4.4 23:07:45 10° NW 23:12:19 33° WSW 23:14:32 23° SW
ATLAS 3B R/B 3.6 23:04:38 10° NW 23:12:28 59° NE 23:20:04 10° ESE
Tsikada Rocket 4.0 23:12:12 25° S 23:15:59 85° E 23:22:18 10° N
Cosmos 1190 Rocket 4.2 23:12:32 22° SW 23:15:59 71° WNW 23:21:17 10° NNE
ALOS 2 3.8 23:14:27 22° SW 23:16:17 30° W 23:20:10 10° NNW
Meteor 1-24 Rocket 3.8 23:13:40 25° S 23:17:19 89° WNW 23:23:16 10° NNE
Cosmos 1606 2.4 23:19:27 10° N 23:22:30 59° ENE 23:23:21 39° SE
Cosmos 841 Rocket 3.5 23:19:23 10° NNW 23:24:38 71° WSW 23:27:33 26° S
NOSS 3-1 (A) 4.2 23:18:57 10° NW 23:26:00 59° SW 23:32:25 19° SSE
Cosmos 2279 Rocket 4.1 23:20:00 10° N 23:26:12 70° ENE 23:30:32 21° SSE
ATLAS 2AS CENTAUR R/B 2.8 23:25:05 23° SSW 23:29:46 64° SE 23:36:37 10° NE
BREEZE-M DEB (TANK) 3.6 23:28:12 25° SSW 23:30:11 33° SSE 23:32:55 10° E
Meteor 2-5 Rocket 3.9 23:27:46 24° SSW 23:31:28 76° WNW 23:37:26 10° N
H-2A R/B 2.9 23:31:18 22° SE 23:33:22 48° ENE 23:36:53 10° N
Cosmos 2242 Rocket 3.9 23:31:50 28° SSE 23:34:03 58° E 23:38:26 10° NNE
SL-24 R/B - RUBIN 2 4.3 23:31:05 10° NW 23:36:07 58° NE 23:40:37 10° ESE
Cosmos 1833 Rocket 2.9 23:33:24 10° NNW 23:39:03 72° ENE 23:44:08 13° SE
SeaSat 1 3.0 23:37:33 27° SSW 23:39:37 40° WSW 23:44:16 10° NW
Landsat 4 3.7 23:40:02 30° SE 23:41:07 48° ENE 23:43:56 10° N
USA 305 3.6 23:47:15 10° WNW 23:49:56 29° N 23:51:52 10° ENE
CZ-2C R/B 3.4 23:48:56 10° NNE 23:54:21 58° E 23:57:35 23° S
